User: anonymous   Login
Location: Vallejo Observatory
(38.1221°N, 122.2109°W)
Time: 11:44:11
(UTC-07:00)
Language:

MOS 1 Rocket - Orbit

View from above orbital plane
View from above orbital plane
View from above satellite
View from above satellite

Ground track
Ground track

The orbit data is extracted from the following two-line orbital elements,

1 17528U 87018B   17230.90805383  .00000052  00000-0  20383-4 0  9993
2 17528  97.4566 180.8618 0153418 100.8810 309.1603 14.50788781608975
Epoch (UTC): 18 August 2017 21:47:35
Eccentricity: 0.0153418
inclination: 97.4566°
perigee height: 614 km
apogee height: 832 km
right ascension of ascending node: 180.8618°
argument of perigee: 100.8810°
revolutions per day: 14.50788781
mean anomaly at epoch: 309.1603°
orbit number at epoch: 60897

The dashed part of the orbit path shows where the satellite is in the earth's shadow,  

DLR